Date String (YYYY-MM-DD hh:mm:ss) UTC,Instrument flags,Ambient pressure (hPa),Sample flow (lpm),Bypass flow (lpm),Sample temperature (°C),Ambient temperature (°C),ASC tube jacket temperature (°C),LED temperature (°C),Box temperature (°C),Sample RH (%),Span deviation,Mass concentration (μg/m³),Mass concentration (μg/m³),Mass concentration (μg/m³)
DateTimeUTC,F1_M11,P_M11,Q1_M11,Q2_M11,T1_M11,T2_M11,T3_M11,T4_M11,T5_M11,U1_M11,ZSPAN_M11,X2_M11,X0_M11,X1_M11
2022-05-28 05:00:00,,0822.4,5.00,0.00,29.5,28.6,00.0,38.4,31.5,13.7,0000.0,0003.83,0014.03,0002.65
2022-05-28 05:01:00,,0822.3,5.00,0.00,29.6,28.6,00.0,38.4,31.5,13.6,0000.0,0003.89,0014.34,0002.66
2022-05-28 05:02:00,,0822.3,5.01,0.00,29.6,28.7,00.0,38.4,31.5,13.6,0000.0,0003.91,0014.54,0002.69
2022-05-28 05:03:00,,0822.3,5.00,0.00,29.6,28.7,00.0,38.4,31.5,13.6,0000.0,0003.93,0014.58,0002.68
2022-05-28 05:04:00,,0822.3,4.99,0.00,29.6,28.7,00.0,38.4,31.5,13.5,0000.0,0003.94,0014.09,0002.69
2022-05-28 05:05:00,,0822.3,5.02,0.00,29.6,28.7,00.0,38.4,31.5,13.5,0000.0,0003.95,0013.56,0002.72
2022-05-28 05:06:00,,0822.3,5.00,0.00,29.7,28.7,00.0,38.5,31.5,13.5,0000.0,0003.95,0013.43,0002.72
2022-05-28 05:07:00,,0822.3,5.00,0.00,29.6,27.9,00.0,38.4,31.4,13.5,0000.0,0004.02,0013.57,0002.76
2022-05-28 05:08:00,,0822.3,4.99,0.00,29.5,27.3,00.0,38.3,31.2,13.5,0000.0,0004.05,0013.49,0002.79
2022-05-28 05:09:00,,0822.3,5.01,0.00,29.4,27.1,00.0,38.3,31.1,13.6,0000.0,0004.14,0013.58,0002.83
2022-05-28 05:10:00,,0822.3,4.99,0.00,29.4,27.2,00.0,38.3,31.0,13.6,0000.0,0004.17,0013.16,0002.84
2022-05-28 05:11:00,,0822.3,5.00,0.00,29.3,27.3,00.0,38.3,31.0,13.6,0000.0,0004.18,0012.27,0002.86
2022-05-28 05:12:00,,0822.3,5.01,0.00,29.3,27.4,00.0,38.3,31.0,13.5,0000.0,0004.14,0013.04,0002.89
2022-05-28 05:13:00,,0822.3,4.99,0.00,29.3,27.5,00.0,38.3,31.1,13.5,0000.0,0004.15,0014.53,0002.91
2022-05-28 05:14:00,,0822.4,5.00,0.00,29.3,27.7,00.0,38.3,31.1,13.6,0000.0,0004.15,0015.55,0002.93
2022-05-28 05:15:00,,0822.3,5.00,0.00,29.3,27.8,00.0,38.2,31.1,13.6,0000.0,0004.11,0015.44,0002.95
2022-05-28 05:16:00,,0822.3,5.00,0.00,29.3,27.9,00.0,38.2,31.1,13.9,0000.0,0004.06,0015.37,0002.95
2022-05-28 05:17:00,,0822.4,4.99,0.00,29.3,28.0,00.0,38.2,31.2,13.9,0000.0,0004.07,0015.76,0002.95
2022-05-28 05:18:00,,0822.3,5.01,0.00,29.3,28.1,00.0,38.2,31.2,13.9,0000.0,0004.05,0015.59,0002.95
2022-05-28 05:19:00,,0822.3,5.00,0.00,29.3,28.1,00.0,38.2,31.2,13.8,0000.0,0004.02,0015.62,0002.93
2022-05-28 05:20:00,,0822.3,4.99,0.00,29.4,28.2,00.0,38.3,31.2,13.7,0000.0,0004.00,0016.90,0002.92
2022-05-28 05:21:00,,0822.3,4.99,0.00,29.4,28.3,00.0,38.3,31.3,13.6,0000.0,0004.03,0019.26,0002.92
2022-05-28 05:22:00,,0822.3,5.00,0.00,29.4,28.3,00.0,38.3,31.3,13.5,0000.0,0004.04,0020.18,0002.93
2022-05-28 05:23:00,,0822.3,4.99,0.00,29.4,28.4,00.0,38.3,31.3,13.5,0000.0,0004.07,0019.40,0002.93
2022-05-28 05:24:00,,0822.2,5.00,0.00,29.4,28.4,00.0,38.3,31.3,13.5,0000.0,0004.12,0018.07,0002.93
2022-05-28 05:25:00,,0822.2,4.99,0.00,29.4,28.5,00.0,38.3,31.3,13.5,0000.0,0004.13,0017.51,0002.94
2022-05-28 05:26:00,,0822.2,5.01,0.00,29.5,28.5,00.0,38.3,31.4,13.5,0000.0,0004.13,0018.48,0002.95
2022-05-28 05:27:00,,0822.2,5.00,0.00,29.5,28.5,00.0,38.3,31.4,13.5,0000.0,0004.23,0019.39,0002.96
2022-05-28 05:28:00,,0822.2,4.99,0.00,29.5,28.5,00.0,38.3,31.4,13.5,0000.0,0004.27,0019.27,0002.98
2022-05-28 05:29:00,,0822.2,5.00,0.00,29.5,28.6,00.0,38.4,31.4,13.4,0000.0,0004.26,0019.76,0002.98
2022-05-28 05:30:00,,0822.2,5.01,0.00,29.5,28.6,00.0,38.4,31.4,13.4,0000.0,0004.28,0019.64,0003.00
2022-05-28 05:31:00,,0822.2,4.99,0.00,29.6,28.6,00.0,38.4,31.5,13.4,0000.0,0004.30,0019.56,0003.01
2022-05-28 05:32:00,,0822.2,5.01,0.00,29.6,28.7,00.0,38.4,31.5,13.4,0000.0,0004.24,0017.54,0003.02
2022-05-28 05:33:00,,0822.2,5.00,0.00,29.6,28.7,00.0,38.4,31.5,13.5,0000.0,0004.24,0017.72,0003.02
2022-05-28 05:34:00,,0822.2,5.00,0.00,29.6,28.7,00.0,38.4,31.5,13.4,0000.0,0004.20,0018.44,0003.03
2022-05-28 05:35:00,,0822.2,5.00,0.00,29.6,28.7,00.0,38.5,31.5,13.5,0000.0,0004.19,0018.86,0003.05
2022-05-28 05:36:00,,0822.2,5.01,0.00,29.7,28.7,00.0,38.5,31.6,13.4,0000.0,0004.19,0018.56,0003.04
2022-05-28 05:37:00,,0822.2,5.00,0.00,29.7,28.7,00.0,38.5,31.6,13.3,0000.0,0004.20,0016.86,0003.05
2022-05-28 05:38:00,,0822.2,4.99,0.00,29.7,28.8,00.0,38.5,31.6,13.1,0000.0,0004.14,0015.35,0003.05
2022-05-28 05:39:00,,0822.2,4.99,0.00,29.7,28.8,00.0,38.5,31.6,13.2,0000.0,0004.13,0015.19,0003.05
2022-05-28 05:40:00,,0822.2,5.01,0.00,29.7,28.8,00.0,38.5,31.6,13.1,0000.0,0004.12,0014.70,0003.06
2022-05-28 05:41:00,,0822.2,5.02,0.00,29.7,28.6,00.0,38.5,31.6,12.9,0000.0,0004.13,0014.80,0003.07
2022-05-28 05:42:00,,0822.1,4.99,0.00,29.7,27.6,00.0,38.5,31.3,13.1,0000.0,0004.09,0013.68,0003.09
2022-05-28 05:43:00,,0822.1,5.00,0.00,29.6,27.2,00.0,38.4,31.2,13.1,0000.0,0004.11,0013.92,0003.11
2022-05-28 05:44:00,,0822.1,5.01,0.00,29.5,27.1,00.0,38.4,31.1,13.2,0000.0,0004.10,0013.18,0003.11
2022-05-28 05:45:00,,0822.2,4.99,0.00,29.4,27.2,00.0,38.4,31.1,13.5,0000.0,0004.15,0012.66,0003.10
2022-05-28 05:46:00,,0822.1,5.00,0.00,29.4,27.3,00.0,38.3,31.1,13.3,0000.0,0004.17,0012.24,0003.10
2022-05-28 05:47:00,,0822.1,5.00,0.00,29.4,27.4,00.0,38.3,31.1,13.3,0000.0,0004.17,0011.80,0003.11
2022-05-28 05:48:00,,0822.1,4.99,0.00,29.3,27.6,00.0,38.3,31.1,13.4,0000.0,0004.16,0011.89,0003.11
2022-05-28 05:49:00,,0822.1,5.02,0.00,29.3,27.7,00.0,38.3,31.1,13.5,0000.0,0004.22,0012.50,0003.11
2022-05-28 05:50:00,,0822.1,5.00,0.00,29.3,27.8,00.0,38.3,31.1,13.5,0000.0,0004.20,0012.31,0003.11
2022-05-28 05:51:00,,0822.1,5.00,0.00,29.3,27.9,00.0,38.3,31.2,13.5,0000.0,0004.19,0012.35,0003.12
2022-05-28 05:52:00,,0822.1,5.01,0.00,29.3,28.0,00.0,38.3,31.2,13.5,0000.0,0004.20,0012.03,0003.12
2022-05-28 05:53:00,,0822.1,5.00,0.00,29.4,28.1,00.0,38.3,31.2,13.4,0000.0,0004.18,0012.36,0003.12
2022-05-28 05:54:00,,0822.1,4.99,0.00,29.4,28.1,00.0,38.3,31.2,13.4,0000.0,0004.15,0011.98,0003.11
2022-05-28 05:55:00,,0822.1,5.00,0.00,29.4,28.2,00.0,38.3,31.2,13.3,0000.0,0004.18,0012.00,0003.10
2022-05-28 05:56:00,,0822.1,5.01,0.00,29.4,28.3,00.0,38.3,31.3,13.3,0000.0,0004.16,0011.87,0003.12
2022-05-28 05:57:00,,0822.1,5.00,0.00,29.4,28.3,00.0,38.3,31.3,13.3,0000.0,0004.10,0011.64,0003.12
2022-05-28 05:58:00,,0822.1,4.99,0.00,29.4,28.3,00.0,38.3,31.3,13.3,0000.0,0004.09,0011.64,0003.12
2022-05-28 05:59:00,,0822.1,4.99,0.00,29.4,28.4,00.0,38.3,31.3,13.3,0000.0,0004.13,0011.48,0003.12
